sat.trackr.live / text

‹ back to catalog

STARLINK-30405

NORAD 57851 · 2023-141M

PAYLOAD ACTIVE UNKNOWN

§ Identity

Operator
Country
US
Launch date
2023-09-12
Launch site
AFWTR
Launch vehicle
Mass (kg)
RCS (m²)

Purposes: comms

External: N2YO · Heavens-Above · Gunter

§ Orbital elements

Epoch: 2026-09-20T22:49:22.602720Z

Period
94.01 min
Inclination
53.1594°
Eccentricity
0.0001179
Mean motion
15.31705136 rev/d
Perigee alt
469.9 km
Apogee alt
471.5 km
Semi-major
6,848.9 km
B*
3.0712e-5
RAAN
95.6659°
Arg perigee
95.4597°
Mean anomaly
264.6539°
Rev number
17,024

§ Raw data

STARLINK-304051 57851U 23141M   26263.95095605  .00000588  00000+0  30712-4 0  99922 57851  53.1594  95.6659 0001179  95.4597 264.6539 15.31705136170243

JSON: /api/v1/satellites/57851 · /tle

For live sub-satellite position, see the globe view (requires WebGL).

§ Visibility from observer

Set your observer location to see the next 7 days of passes ≥ 10°. The values pass through the URL so the page stays shareable.

No JS? Fill the form by hand. The geolocation button needs JavaScript.